Track COSMOS 1833 now! 10-day predictions COSMOS 1833 is classified as:
1 17589U 87027A 26041.11078467 .00000037 00000-0 45332-4 0 9992 2 17589 70.9216 23.9787 0024905 251.5158 108.3256 14.13056744 6422